Waarnemingen

Advertentie
Mijn weer
Madridejos, Spanje (8273): temperatuur & dauwpunt: 17.07.2019 13:00:00 - 23.07.2019 13:00:00 (CEST)Madridejos, Spanje (8273): windsnelheid & windstoten: 17.07.2019 13:00:00 - 23.07.2019 13:00:00 (CEST)Madridejos, Spanje (8273): windrichting: 17.07.2019 13:00:00 - 23.07.2019 13:00:00 (CEST)Madridejos, Spanje (8273): luchtdruk: 17.07.2019 13:00:00 - 23.07.2019 13:00:00 (CEST)Madridejos, Spanje (8273): zicht: 17.07.2019 13:00:00 - 23.07.2019 13:00:00 (CEST)Madridejos, Spanje (8273): Zonneschijnduur: 17.07.2019 13:00:00 - 23.07.2019 13:00:00 (CEST)Madridejos, Spanje (8273): neerslag: 17.07.2019 13:00:00 - 23.07.2019 13:00:00 (CEST)
Datum & Tijd tt [°C] td [°C] ff [km/u] ff [kn] fx [km/u] fx [kn] dd ppp [hPa] vv [km] sd [min] rr [mm]
23.07.2019 13:00:00 - - - - - - - - - - -
23.07.2019 12:00:00 - - - - - - - - - - -
23.07.2019 11:00:00 - - - - - - - - - - -
23.07.2019 10:00:00 - - - - - - - - - - -
23.07.2019 09:00:00 - - - - - - - - - - -
23.07.2019 08:00:00 - - - - - - - - - - -
23.07.2019 07:00:00 - - - - - - - - - - -
23.07.2019 06:00:00 - - - - - - - - - - -
23.07.2019 05:00:00 - - - - - - - - - - -
23.07.2019 04:00:00 - - - - - - - - - - -
23.07.2019 03:00:00 - - - - - - - - - - -
23.07.2019 02:00:00 - - - - - - - - - - -
23.07.2019 01:00:00 - - - - - - - - - - -
23.07.2019 00:00:00 - - - - - - - - - - -
22.07.2019 23:00:00 - - - - - - - - - - -
22.07.2019 22:00:00 - - - - - - - - - - -
22.07.2019 21:00:00 - - - - - - - - - - -
22.07.2019 20:00:00 - - - - - - - - - - -
22.07.2019 19:00:00 - - - - - - - - - - -
22.07.2019 18:00:00 - - - - - - - - - - -
22.07.2019 17:00:00 - - - - - - - - - - -
22.07.2019 16:00:00 - - - - - - - - - - -
22.07.2019 15:00:00 - - - - - - - - - - -
22.07.2019 14:00:00 - - - - - - - - - - -
22.07.2019 13:00:00 - - - - - - - - - - -
22.07.2019 12:00:00 - - - - - - - - - - -
22.07.2019 11:00:00 - - - - - - - - - - -
22.07.2019 10:00:00 - - - - - - - - - - -
22.07.2019 09:00:00 - - - - - - - - - - -
22.07.2019 08:00:00 - - - - - - - - - - -
22.07.2019 07:00:00 - - - - - - - - - - -
22.07.2019 06:00:00 - - - - - - - - - - -
22.07.2019 05:00:00 22,8 10,3 24 13 40 22 OZO 1017,0 20 0 0,0
22.07.2019 04:00:00 23,7 9,3 21 11 42 23 O 1017,4 20 0 0,0
22.07.2019 03:00:00 24,8 8,3 25 13 45 25 O 1017,0 20 0 0,0
22.07.2019 02:00:00 26,0 7,1 29 15 44 24 O 1016,7 20 0 -
22.07.2019 01:00:00 27,1 8,5 19 11 45 24 OZO 1016,7 20 0 0,0
22.07.2019 00:00:00 28,4 9,7 21 11 49 26 OZO 1016,0 20 0 0,0
21.07.2019 23:00:00 30,2 10,6 33 18 49 26 O 1014,2 17 0 0,0
21.07.2019 22:00:00 32,9 6,2 24 13 42 23 OZO 1012,6 20 1 0,0
21.07.2019 21:00:00 34,5 8,3 27 15 46 25 O 1011,5 16 39 0,0
21.07.2019 20:00:00 36,0 7,1 19 11 41 22 OZO 1010,8 18 56 -
21.07.2019 19:00:00 36,7 6,8 19 10 36 20 O 1010,5 20 60 0,0
21.07.2019 18:00:00 37,3 6,4 16 9 32 17 O 1010,6 20 60 0,0
21.07.2019 17:00:00 36,9 7,0 15 8 33 18 O 1011,3 20 60 0,0
21.07.2019 16:00:00 - - - - - - - - - - -
21.07.2019 15:00:00 - - - - - - - - - - -
21.07.2019 14:00:00 - - - - - - - - - - -
21.07.2019 13:00:00 - - - - - - - - - - -
21.07.2019 12:00:00 - - - - - - - - - - -
21.07.2019 11:00:00 - - - - - - - - - - -
21.07.2019 10:00:00 25,2 9,9 5 3 24 13 ZO 1015,5 20 60 0,0
21.07.2019 09:00:00 22,8 8,9 6 3 22 12 O 1015,7 20 33 0,0
21.07.2019 08:00:00 21,2 7,4 5 3 19 10 O 1015,5 20 0 -
21.07.2019 07:00:00 21,4 6,8 4 2 6 3 O 1015,1 20 0 0,0
21.07.2019 06:00:00 22,6 6,7 3 2 21 11 ZO 1014,6 20 0 0,0
21.07.2019 05:00:00 22,9 6,5 8 4 28 15 O 1014,2 20 0 0,0
21.07.2019 04:00:00 23,7 7,7 9 5 26 14 O 1014,0 20 0 0,0
21.07.2019 03:00:00 25,6 8,1 10 5 18 10 O 1013,6 20 0 0,0
21.07.2019 02:00:00 27,3 8,7 10 6 19 11 OZO 1013,1 20 0 -
21.07.2019 01:00:00 29,4 9,6 11 6 24 13 OZO 1012,3 20 0 0,0
21.07.2019 00:00:00 31,4 9,6 15 8 24 13 NNW 1010,9 19 0 0,0
20.07.2019 23:00:00 32,3 7,1 17 9 26 14 W 1010,0 20 0 0,0
20.07.2019 22:00:00 34,2 6,5 7 4 26 14 W 1008,5 20 0 0,0
20.07.2019 21:00:00 36,3 5,5 5 3 36 19 WZW 1007,3 20 28 0,0
20.07.2019 20:00:00 36,9 5,9 13 7 29 16 ZZO 1006,9 20 30 -
20.07.2019 19:00:00 37,7 5,6 13 7 38 21 Z 1006,9 20 58 0,0
20.07.2019 18:00:00 37,2 5,3 11 6 35 19 ZO 1007,1 20 60 0,0
20.07.2019 17:00:00 36,8 5,0 10 5 22 12 O 1007,5 20 60 0,0
20.07.2019 16:00:00 36,7 6,8 8 4 32 17 Z 1008,2 20 60 0,0
20.07.2019 15:00:00 36,3 6,4 7 4 14 8 ZZO 1008,6 20 60 0,0
20.07.2019 14:00:00 35,2 7,3 5 3 16 8 Z 1009,2 20 60 -
20.07.2019 13:00:00 33,1 7,1 6 4 14 8 ZZO 1009,9 20 60 0,0
20.07.2019 12:00:00 31,3 7,0 4 2 11 6 NNW 1010,5 20 60 0,0
20.07.2019 11:00:00 28,6 7,7 3 1 11 6 ZO 1010,9 20 60 0,0
20.07.2019 10:00:00 25,3 8,3 6 3 26 14 ZZO 1011,7 20 60 0,0
20.07.2019 09:00:00 21,7 9,6 11 6 24 13 O 1011,9 13 60 0,0
20.07.2019 08:00:00 20,1 8,8 5 3 20 11 ZZO 1012,1 20 3 -
20.07.2019 07:00:00 19,6 8,3 2 1 20 11 NNW 1011,9 20 0 0,0
20.07.2019 06:00:00 20,7 8,0 7 4 26 14 ZO 1010,9 20 0 0,0
20.07.2019 05:00:00 21,7 7,8 10 6 28 15 OZO 1010,2 20 0 0,0
20.07.2019 04:00:00 22,6 6,7 9 5 31 17 OZO 1010,2 20 0 0,0
20.07.2019 03:00:00 23,0 6,2 17 9 31 17 O 1010,3 20 0 0,0
20.07.2019 02:00:00 25,2 5,9 6 3 22 12 O 1009,9 20 0 -
20.07.2019 01:00:00 27,4 6,2 12 6 19 10 OZO 1009,2 20 0 0,0
20.07.2019 00:00:00 28,8 5,6 9 5 22 12 ZO 1008,6 20 0 0,0
19.07.2019 23:00:00 30,8 5,3 16 9 34 18 OZO 1007,8 20 0 0,0
19.07.2019 22:00:00 32,5 1,5 16 8 31 17 OZO 1006,8 20 0 0,0
19.07.2019 21:00:00 35,0 2,5 9 5 27 14 ZZO 1005,9 20 15 0,0
19.07.2019 20:00:00 35,4 1,7 14 7 24 13 OZO 1005,7 20 18 -
19.07.2019 19:00:00 36,0 2,1 9 5 23 13 ZZO 1005,8 20 49 0,0
19.07.2019 18:00:00 36,6 3,8 8 4 32 17 ZO 1006,2 20 58 0,0
19.07.2019 17:00:00 36,4 4,6 9 5 34 18 OZO 1006,7 20 58 0,0
19.07.2019 16:00:00 35,4 4,8 10 5 32 17 ZO 1007,6 20 60 0,0
19.07.2019 15:00:00 35,8 5,1 6 4 28 15 ZZO 1008,2 20 60 0,0
19.07.2019 14:00:00 34,9 7,0 7 4 20 11 Z 1009,1 20 60 -
19.07.2019 13:00:00 32,8 7,6 8 5 19 11 ZO 1010,0 20 60 0,0
19.07.2019 12:00:00 30,0 7,8 8 5 17 9 OZO 1011,1 20 60 0,0
19.07.2019 11:00:00 27,0 8,4 6 4 27 15 OZO 1011,9 20 60 0,0
19.07.2019 10:00:00 23,9 9,0 13 7 28 15 OZO 1012,8 20 60 0,0
19.07.2019 09:00:00 21,5 9,0 11 6 22 12 O 1013,0 20 60 0,0
19.07.2019 08:00:00 19,8 9,0 8 4 21 12 OZO 1013,2 15 12 -
19.07.2019 07:00:00 20,0 8,9 8 4 24 13 ZO 1012,8 20 0 0,0
19.07.2019 06:00:00 20,9 9,2 8 4 23 12 OZO 1012,6 20 0 0,0
19.07.2019 05:00:00 21,7 7,6 9 5 27 14 OZO 1012,3 20 0 0,0
19.07.2019 04:00:00 24,2 5,0 5 3 14 8 NO 1011,4 20 0 0,0
19.07.2019 03:00:00 26,4 5,9 7 4 17 9 Z 1010,9 20 0 0,0
19.07.2019 02:00:00 26,0 5,6 7 4 16 9 ZZW 1011,0 20 0 -
19.07.2019 01:00:00 27,1 4,1 8 4 14 8 ZZW 1010,5 20 0 0,0
19.07.2019 00:00:00 28,6 2,7 7 4 12 7 Z 1009,9 20 0 0,0
18.07.2019 23:00:00 29,5 2,7 6 4 15 8 OZO 1009,4 20 0 0,0
18.07.2019 22:00:00 32,0 3,0 8 5 16 9 ZZO 1008,3 20 0 0,0
18.07.2019 21:00:00 33,6 2,5 7 4 19 10 ZZO 1007,6 20 22 0,0
18.07.2019 20:00:00 34,8 3,4 7 4 28 15 ZO 1007,1 20 60 -
18.07.2019 19:00:00 35,3 2,7 9 5 22 12 ZZO 1007,1 20 59 0,0
18.07.2019 18:00:00 34,3 3,9 5 3 25 14 NNO 1007,7 20 46 0,0
18.07.2019 17:00:00 34,1 5,6 9 5 28 15 NNW 1008,2 20 49 0,0
18.07.2019 16:00:00 34,2 4,8 4 2 21 12 N 1008,7 20 59 0,0
18.07.2019 15:00:00 33,6 4,3 8 5 21 12 ZZW 1009,4 20 60 0,0
18.07.2019 14:00:00 32,2 5,6 7 4 17 9 ONO 1010,3 20 60 -
18.07.2019 13:00:00 31,3 7,7 5 3 16 9 NO 1010,9 20 60 0,0
18.07.2019 12:00:00 29,5 8,5 5 3 13 7 ZO 1011,5 20 60 0,0
18.07.2019 11:00:00 27,5 7,4 5 3 11 6 ZO 1012,0 20 60 0,0
18.07.2019 10:00:00 - - - - - - - - - - -
18.07.2019 09:00:00 20,8 4,8 8 5 19 10 O 1013,4 16 60 0,0
18.07.2019 08:00:00 18,4 4,5 6 3 16 9 NNO 1013,7 8 14 -
18.07.2019 07:00:00 19,8 4,3 3 1 18 10 ZZO 1013,0 16 0 0,0
18.07.2019 06:00:00 21,1 4,1 5 3 23 12 ZZO 1012,4 20 0 0,0
18.07.2019 05:00:00 21,4 4,5 7 4 - - ZZO 1012,5 20 - -
18.07.2019 04:00:00 21,0 6,1 7 4 12 7 W 1012,2 20 0 0,0
18.07.2019 03:00:00 21,7 5,6 6 4 14 8 WNW 1012,4 20 0 0,0
18.07.2019 02:00:00 23,6 5,0 8 4 32 17 W 1011,9 20 0 -
18.07.2019 01:00:00 25,0 4,6 13 7 36 20 W 1011,3 20 0 0,0
18.07.2019 00:00:00 26,5 3,0 22 12 37 20 W 1010,7 20 0 0,0
17.07.2019 23:00:00 28,0 5,0 14 8 26 14 W 1009,7 20 0 0,0
17.07.2019 22:00:00 30,1 6,7 13 7 25 13 NW 1008,2 20 5 0,0
17.07.2019 21:00:00 32,0 3,0 8 4 14 7 W 1007,3 20 30 0,0
17.07.2019 20:00:00 32,7 0,6 6 3 20 11 NNW 1007,0 20 60 -
17.07.2019 19:00:00 33,9 -0,7 11 6 25 13 W 1006,8 20 60 0,0
17.07.2019 18:00:00 33,9 0,4 11 6 35 19 ZW 1007,1 20 60 0,0
17.07.2019 17:00:00 33,4 0,2 11 6 29 16 ZW 1007,6 20 60 0,0
17.07.2019 16:00:00 32,4 -2,0 17 9 35 19 ZW 1008,5 20 60 0,0
17.07.2019 15:00:00 31,9 0,0 16 9 35 19 WZW 1009,0 20 60 0,0
17.07.2019 14:00:00 30,6 1,9 16 9 35 19 WZW 1009,8 20 60 -
17.07.2019 13:00:00 29,9 5,1 9 5 29 16 ZZW 1010,2 20 60 0,0

tt = temperatuur
td = dauwpunt
ff = windsnelheid
fx = windstoten
dd = windrichting
ppp = luchtdruk
vv = zicht
sd = Zonneschijnduur
rr = neerslag

Weerstations in de omgeving